"Pseudo-MPEC" for JNS051

Created 2020 Sep 19 21:07:21 UT using Find_Orb

Click here for an explanation of pseudo-MPECs

 
 Astrometry: 
     JNS051   C2020 09 14\7#9`hC7pj9.4%]Fgo2/`Y)Astrometry]X]n;^+SbD9Ph*Xw.FwQ66
     JNS051   C2020 09 14hFZhh)!Qi44FLub0Z;redacted;Lclick$.#FlWYi@%gb!Pn_QyNQ66
     JNS051   C2020 09 14?3/f_*NpCvB+SCherew1@Q[a9acC/Hu.Pnv_Z[Cb+a_(^j[[Al7bQ66
     JNS051   C2020 09 14wrforIj4f4w4c`?W\$8=TI=:Q!*f\YMh0Fkexplanation!4X51lQ66

Station data:
(Q66) Siding Spring-Janess-G, JAXA  (S31.273299 E149.064250)  Australia/NSW.

Orbital elements:  JNS051
   Perigee 2020 Sep 15.550828 +/- 30.6 TT = 13:13:11 (JD 2459108.050828)
Epoch 2020 Sep 15.0 TT = JDT 2459107.5                        AutoNEOCP
M 347.66898260 +/- 19               (J2000 equator)
n  22.38633101 +/- 0.302            Peri.    2.88957 +/- 80
a269121.395 +/- 4.02e+7             Node    14.25523 +/- 80
e   0.2000412 +/- 0.201             Incl.   19.74006 +/- 0.30
P  16.08d                  H 31.9   G  0.15   U 11.9  SR
q 215286.017 +/- 8.47e+6    Q 322956.772 +/- 3.02e+8
From 4 observations 2020 Sept. 14 (46.0 min); mean residual 0".53
Residuals in arcseconds: 
200914 Q66  .11+  .91+    200914 Q66  .10+  .50-    
200914 Q66  .11-  .92-    200914 Q66  .10-  .51+    

Ephemerides (geocentric):
Date (UTC) HH   RA              Dec         delta   r     elong  mag " sig PA
---- -- -- --  -------------   -----------  ------ ------ -----  --- ---- ---
2020 09 19 21  09 09 00.511   +16 45 01.33  282513 1.0030  42.4 24??  50d 172
2020 09 19 22  09 12 23.107   +16 35 49.78  283233 1.0029  41.6 24??  51d 172
2020 09 19 23  09 15 44.360   +16 26 28.85  283947 1.0029  40.9 25??  51d 172
2020 09 20 00  09 19 04.290   +16 16 58.81  284654 1.0029  40.1 25??  51d 172
2020 09 20 01  09 22 22.913   +16 07 19.92  285354 1.0028  39.3 25??  51d 172
2020 09 20 02  09 25 40.250   +15 57 32.45  286048 1.0028  38.6 25??  51d 172
2020 09 20 03  09 28 56.319   +15 47 36.64  286735 1.0028  37.8 25??  51d 172
2020 09 20 04  09 32 11.139   +15 37 32.76  287414 1.0027  37.1 25??  51d 172
2020 09 20 05  09 35 24.729   +15 27 21.03  288087 1.0027  36.3 25??  51d 172
2020 09 20 06  09 38 37.108   +15 17 01.70  288753 1.0027  35.6 25??  51d 172
2020 09 20 07  09 41 48.295   +15 06 34.99  289411 1.0026  34.8 25??  51d 172
2020 09 20 08  09 44 58.309   +14 56 01.14  290062 1.0026  34.1 26??  51d 172
2020 09 20 09  09 48 07.170   +14 45 20.35  290706 1.0026  33.4 26??  51d 172
2020 09 20 10  09 51 14.895   +14 34 32.83  291342 1.0026  32.6 26??  52d 172
2020 09 20 11  09 54 21.505   +14 23 38.81  291970 1.0025  31.9 26??  52d 172
2020 09 20 12  09 57 27.018   +14 12 38.48  292591 1.0025  31.2 26??  52d 172
2020 09 20 13  10 00 31.453   +14 01 32.02  293205 1.0025  30.5 26??  52d 172
2020 09 20 14  10 03 34.829   +13 50 19.65  293810 1.0024  29.8 26??  52d 172
2020 09 20 15  10 06 37.165   +13 39 01.54  294408 1.0024  29.0 26??  52d 172
2020 09 20 16  10 09 38.479   +13 27 37.87  294998 1.0024  28.3 27??  52d 172
2020 09 20 17  10 12 38.791   +13 16 08.82  295579 1.0024  27.6 27??  52d 172
2020 09 20 18  10 15 38.119   +13 04 34.57  296153 1.0023  26.9 27??  52d 172
2020 09 20 19  10 18 36.482   +12 52 55.27  296719 1.0023  26.2 27??  52d 172
2020 09 20 20  10 21 33.897   +12 41 11.10  297276 1.0023  25.5 27??  52d 173
2020 09 20 21  10 24 30.384   +12 29 22.21  297825 1.0023  24.9 27??  52d 173
2020 09 20 22  10 27 25.961   +12 17 28.75  298366 1.0022  24.2 28??  52d 173
2020 09 20 23  10 30 20.645   +12 05 30.88  298899 1.0022  23.5 28??  53d 173
2020 09 21 00  10 33 14.456   +11 53 28.73  299423 1.0022  22.8 28??  53d 173
2020 09 21 01  10 36 07.410   +11 41 22.46  299939 1.0022  22.1 28??  53d 173
2020 09 21 02  10 38 59.527   +11 29 12.20  300446 1.0021  21.5 28??  53d 173
2020 09 21 03  10 41 50.823   +11 16 58.09  300944 1.0021  20.8 29??  53d 173
2020 09 21 04  10 44 41.317   +11 04 40.25  301434 1.0021  20.1 29??  53d 173
2020 09 21 05  10 47 31.026   +10 52 18.81  301916 1.0021  19.5 29??  53d 173
2020 09 21 06  10 50 19.967   +10 39 53.90  302389 1.0021  18.8 29??  53d 173
2020 09 21 07  10 53 08.157   +10 27 25.63  302853 1.0020  18.1 30??  53d 173
2020 09 21 08  10 55 55.615   +10 14 54.13  303308 1.0020  17.5 30??  53d 173
2020 09 21 09  10 58 42.357   +10 02 19.51  303754 1.0020  16.8 30??  53d 173
2020 09 21 10  11 01 28.400   +09 49 41.88  304192 1.0020  16.2 30??  53d 173
2020 09 21 11  11 04 13.761   +09 37 01.34  304620 1.0019  15.6 31??  53d 173
2020 09 21 12  11 06 58.457   +09 24 18.01  305040 1.0019  14.9 31??  53d 173
2020 09 21 13  11 09 42.504   +09 11 31.98  305451 1.0019  14.3 32??  54d 173
2020 09 21 14  11 12 25.919   +08 58 43.36  305853 1.0019  13.7 32??  54d 173
2020 09 21 15  11 15 08.719   +08 45 52.23  306245 1.0019  13.0 32??  54d 173
2020 09 21 16  11 17 50.919   +08 32 58.71  306629 1.0018  12.4 33??  54d 173
2020 09 21 17  11 20 32.537   +08 20 02.87  307003 1.0018  11.8 33??  54d 173
2020 09 21 18  11 23 13.587   +08 07 04.81  307369 1.0018  11.2 34??  54d 173
2020 09 21 19  11 25 54.087   +07 54 04.61  307725 1.0018  10.6 34??  54d 173
2020 09 21 20  11 28 34.052   +07 41 02.37  308072 1.0018  10.1 35??  54d 173